Theta_e
306 306 304 300 300 300 299 298 296 295 294 293 290 289 289 288 288 287 287 287 287 286 286 286 286 285 284 284 283 283 282 281 279 281 283 284 283 283 285 285 287 287 287
303 302 300 300 299 298 296 295 295 294 293 292 289 289 289 288 287 287 286 286 286 285 285 285 285 287 283 282 282 281 281 281 280 279 282 283 282 283 284 284 287 288 286
302 300 299 298 297 296 294 294 294 292 291 289 289 289 288 288 287 286 285 285 286 285 285 284 284 283 282 281 281 280 281 284 282 281 280 283 283 284 284 286 284 284 285
297 298 296 296 295 293 292 292 292 291 290 288 288 287 287 288 287 286 286 286 285 286 286 285 284 283 282 281 282 281 283 281 281 280 280 281 282 284 283 280 280 281 281
295 295 294 294 293 292 291 291 291 290 288 287 287 287 287 286 287 286 287 286 284 284 284 284 284 286 289 288 285 282 282 281 280 279 281 281 282 280 279 280 279 280 280
295 292 292 291 291 290 290 289 289 287 286 287 286 285 285 286 288 288 288 285 284 282 282 282 283 287 286 289 289 289 287 283 280 280 282 279 279 279 277 278 278 277 276
292 291 291 291 290 290 289 288 286 286 286 285 284 284 284 285 287 287 287 284 282 281 281 282 283 285 285 283 286 287 286 288 288 283 280 279 278 279 278 278 279 280 279
290 290 290 290 289 289 287 286 286 285 284 283 283 284 284 285 286 286 287 282 281 281 281 281 281 281 282 284 283 280 281 282 283 283 281 281 280 283 283 283 281 280 280
289 290 289 289 288 287 286 284 284 283 283 284 284 283 281 281 285 285 285 281 280 279 281 281 282 281 286 288 284 278 280 280 284 286 286 287 287 287 286 282 278 277 276
288 289 289 288 287 284 284 282 284 284 283 283 282 281 284 279 285 285 284 281 278 279 280 281 286 284 287 287 283 281 278 278 279 280 281 281 282 280 285 281 279 276 275
289 288 286 285 284 284 284 283 282 281 280 279 279 280 280 280 280 285 285 281 280 280 279 279 280 286 287 287 287 280 279 282 282 279 278 278 279 279 279 279 279 278 277
285 284 284 284 284 283 280 280 280 279 279 278 278 278 279 278 284 284 285 285 285 280 279 280 280 286 286 285 284 284 284 284 278 277 277 277 277 277 278 278 279 278 279
284 283 281 281 281 281 280 279 278 279 278 277 277 276 277 279 278 284 285 285 285 282 281 283 285 285 284 282 283 284 283 277 277 276 277 276 276 277 278 277 278 278 279
281 280 280 279 280 280 280 279 277 277 276 276 276 276 276 276 276 278 279 279 282 281 283 278 282 282 282 281 279 278 277 277 278 277 276 277 278 277 276 277 276 276 276
280 279 279 280 278 277 278 277 277 277 278 276 276 276 275 274 277 282 282 280 279 282 282 278 276 275 275 276 276 276 276 277 276 276 276 276 276 276 276 277 276 276 275
279 279 278 277 277 277 276 276 282 281 281 281 281 279 278 281 282 283 283 283 284 284 278 274 273 273 274 275 275 275 276 276 275 276 276 275 275 275 275 276 277 275 274
277 277 278 278 276 276 276 275 274 277 283 282 282 281 281 281 282 282 283 284 283 281 274 273 272 273 273 274 274 274 274 275 275 275 275 274 275 275 276 274 275 275 274
279 283 277 276 276 275 275 275 274 273 273 273 278 280 281 281 281 282 283 280 275 276 274 273 272 273 273 273 273 274 274 275 274 274 274 275 275 274 274 274 275 274 275
277 277 276 275 275 276 275 274 274 274 273 272 273 276 278 280 281 281 280 274 273 273 274 273 273 273 273 273 274 274 274 274 275 275 274 274 274 275 274 275 275 278 279
278 281 279 275 275 274 274 273 273 272 272 272 272 273 274 276 275 274 274 274 273 273 274 272 273 273 273 273 273 274 273 273 273 273 274 274 275 275 275 275 276 276 276
276 276 279 274 274 273 273 273 273 272 272 272 272 275 280 275 273 273 273 273 273 273 272 272 272 272 273 273 273 273 273 273 273 273 273 274 275 275 276 276 276 277 278
275 274 274 273 273 273 273 273 272 272 272 272 272 275 278 273 272 272 273 273 273 273 273 273 272 273 273 273 273 273 273 273 273 273 273 274 275 275 276 276 277 278 281
273 273 274 273 273 274 272 272 272 272 272 272 272 273 273 272 272 272 273 273 273 273 273 273 273 273 274 274 275 274 273 273 274 275 274 274 275 276 278 280 281 280 279
273 273 273 272 272 272 272 272 272 274 274 273 272 272 271 271 271 272 272 270 272 270 273 274 274 274 274 274 274 275 275 276 276 277 279 281 282 282 282 281 280 279 278
272 271 272 271 271 271 271 271 272 272 272 273 272 273 272 272 271 269 269 270 271 272 274 274 274 273 273 274 274 275 276 281 284 285 283 278 279 281 282 280 280 279 277
272 271 271 271 271 271 271 271 271 271 271 270 270 269 270 270 270 269 270 271 272 273 273 273 274 274 274 274 275 278 283 285 286 289 284 279 279 281 282 281 281 279 279
Wind_Speed
14 14 15 13 15 15 13 13 13 14 13 11 9 8 7 7 6 4 4 3 2 2 2 2 2 1 3 3 3 3 4 3 9 8 7 7 6 8 9 8 12 8 10
15 14 13 14 15 14 14 14 14 13 11 11 8 7 6 6 5 4 2 2 1 2 3 2 3 2 3 3 3 5 3 5 6 13 9 7 6 8 12 10 10 9 12
16 15 14 14 15 15 14 15 14 13 11 8 7 7 7 6 4 3 3 2 3 3 3 2 3 3 4 3 4 3 3 6 5 7 11 8 9 9 10 9 10 12 7
15 15 15 13 14 14 15 14 14 13 11 8 8 7 7 5 4 3 4 4 4 4 4 4 4 4 5 4 4 5 6 5 6 7 8 10 9 9 6 9 11 5 10
14 14 14 14 14 15 15 14 13 11 9 9 9 7 5 4 4 4 4 5 5 6 6 5 3 5 11 11 6 4 5 4 5 6 10 11 8 10 10 7 10 11 13
13 14 14 14 13 14 14 13 12 10 7 8 7 6 6 4 6 3 4 4 5 6 6 5 4 8 10 13 15 18 15 8 9 10 9 11 12 9 4 8 12 12 12
14 15 15 16 15 7 13 13 9 10 8 8 6 6 4 6 5 2 6 3 5 6 6 5 5 5 9 6 10 15 14 18 19 15 14 12 12 10 8 12 13 11 11
15 16 14 16 11 12 10 10 9 7 7 6 6 5 4 4 4 3 7 5 5 6 6 6 5 6 6 9 6 5 5 7 9 9 11 11 9 13 14 12 12 12 12
13 13 13 8 10 12 10 9 8 7 6 5 5 4 4 4 3 4 6 5 5 6 6 6 7 6 12 18 8 5 7 7 11 21 22 25 26 27 21 11 9 10 13
11 10 12 12 9 9 8 7 6 6 5 5 3 2 5 2 2 4 5 2 4 4 5 6 11 13 19 19 12 9 9 10 10 10 10 13 15 11 21 10 6 8 12
11 9 10 10 9 9 9 6 6 6 5 3 2 2 3 3 1 5 7 2 4 4 4 4 4 16 19 22 22 6 10 14 12 8 9 9 9 9 8 9 9 8 11
13 11 11 9 7 7 7 7 6 5 3 2 3 3 3 3 5 5 8 9 12 4 4 4 6 18 22 22 15 19 20 17 5 8 8 9 9 9 9 9 12 12 12
12 11 9 8 7 7 6 6 4 4 3 2 2 1 3 4 4 9 11 13 14 9 5 13 21 21 21 13 15 18 16 5 6 8 9 9 8 10 11 11 12 12 14
12 10 7 7 7 6 4 4 4 4 3 3 3 4 4 4 4 3 3 5 10 9 11 6 13 17 15 12 10 7 3 6 8 9 9 10 11 10 11 9 10 11 11
9 7 6 5 6 5 5 4 3 4 4 3 2 2 3 4 4 10 10 7 6 9 13 4 5 4 5 5 5 5 6 7 8 8 9 10 11 10 11 10 10 10 11
8 5 5 5 4 4 3 3 2 3 2 1 3 3 3 8 13 14 15 17 18 18 6 3 3 4 6 7 8 8 8 11 8 9 10 10 10 11 11 11 10 10 11
7 6 5 5 4 4 4 4 3 4 5 5 5 6 9 10 12 15 17 16 15 13 3 3 3 4 6 6 6 8 10 9 10 9 9 10 10 10 15 11 11 10 11
7 12 5 4 4 4 3 3 2 2 2 3 5 8 9 12 14 17 16 11 5 5 4 5 4 5 6 6 7 8 9 10 9 10 10 10 10 10 11 11 11 12 12
5 5 5 4 4 3 2 3 2 2 3 3 3 5 8 12 15 15 14 3 5 5 5 5 4 5 6 7 8 9 10 10 11 10 10 10 10 10 11 11 12 21 21
5 8 6 3 3 3 3 3 3 3 4 4 3 3 4 6 5 5 3 3 4 4 5 5 6 5 7 8 9 9 10 11 10 10 10 10 11 10 11 12 12 12 12
4 4 4 3 3 2 2 3 3 3 3 3 4 4 14 5 4 4 5 5 4 5 4 5 6 7 8 8 8 9 10 11 10 10 10 11 11 11 11 11 12 12 12
4 3 3 2 2 3 2 2 3 3 3 4 4 5 13 3 4 5 5 5 5 6 4 6 7 8 8 8 9 9 10 11 11 10 11 11 11 11 11 11 12 10 9
3 2 1 1 1 4 4 3 3 3 3 4 4 4 4 4 5 5 5 5 6 6 6 7 8 9 8 8 8 9 10 11 11 11 12 12 12 11 10 9 10 10 10
3 1 1 2 2 2 3 3 4 6 5 4 4 4 4 4 5 6 6 5 6 6 7 7 8 11 11 11 10 9 9 10 10 12 15 10 10 12 11 11 9 11 10
2 2 3 2 3 3 4 4 4 4 4 4 4 5 4 5 6 4 5 5 6 8 9 9 8 11 13 15 16 17 16 25 20 18 6 6 9 13 10 8 10 10 10
1 2 2 3 3 3 3 4 4 3 4 3 4 4 4 5 5 5 6 7 7 8 11 9 11 15 16 13 14 18 25 26 21 20 7 5 7 8 8 8 12 9 11
Wind_Direction
122 127 136 138 137 147 148 143 138 132 133 131 124 130 132 135 134 144 140 140 184 245 305 268 276 322 278 276 286 278 271 267 284 294 292 290 291 288 295 300 293 290 288
127 127 130 137 142 144 134 130 125 125 121 127 125 125 121 113 112 104 86 45 193 269 275 306 284 276 304 297 289 284 282 282 284 296 306 308 299 303 301 298 297 289 289
125 128 134 141 135 132 127 123 121 117 117 111 114 114 108 101 95 70 56 0 325 297 284 278 272 284 286 284 289 310 308 296 286 303 303 302 298 297 291 283 283 293 288
120 131 133 134 130 125 120 119 115 119 121 117 106 102 103 106 94 55 12 343 334 328 312 281 272 263 262 271 278 269 272 276 285 285 291 294 289 292 282 299 296 299 298
120 125 124 122 121 115 113 113 115 116 107 109 106 102 105 114 87 45 1 349 336 329 319 303 305 312 311 298 288 253 256 262 272 281 292 294 296 303 298 294 300 302 294
124 118 115 112 113 108 111 109 110 104 101 104 105 118 114 99 94 34 351 339 326 314 306 309 317 306 291 306 309 304 303 304 310 301 299 303 296 293 294 296 295 297 296
106 100 99 95 89 68 109 103 112 116 119 112 115 101 114 111 103 16 337 339 307 291 289 287 285 284 304 281 289 295 297 301 303 306 298 292 297 297 289 288 287 283 287
93 96 95 112 122 149 110 115 117 108 114 117 106 110 93 121 123 14 343 332 320 306 299 288 280 286 281 301 285 277 279 276 280 285 292 295 287 294 292 286 290 290 287
102 109 113 125 120 111 131 120 105 110 99 101 93 91 83 89 148 20 359 343 317 312 311 329 316 307 315 308 319 280 296 287 299 303 302 304 306 307 306 305 299 298 295
114 121 120 125 127 120 105 97 81 97 111 80 92 121 144 203 360 352 345 341 320 316 319 306 318 319 311 316 312 310 307 308 298 294 308 303 297 287 305 300 303 304 298
129 140 105 100 108 104 100 103 103 81 90 125 154 246 187 165 215 331 338 332 282 277 279 288 291 311 311 315 315 324 303 301 313 309 299 294 299 296 296 290 283 277 288
106 110 104 111 110 101 94 77 80 88 90 82 59 20 6 43 358 334 319 319 322 324 298 292 282 309 321 315 321 313 309 320 323 299 296 298 301 299 296 292 288 281 270
110 107 105 90 78 85 96 106 93 85 85 60 32 16 349 357 352 350 355 336 329 318 308 310 322 320 315 316 311 320 328 320 303 302 303 301 299 295 297 295 291 282 277
98 88 83 89 89 86 82 78 86 69 54 36 30 19 355 344 348 357 327 305 306 310 300 301 319 317 316 326 325 317 309 310 311 312 303 300 300 301 297 295 291 293 289
96 95 97 96 100 86 78 87 79 83 92 53 19 1 337 329 307 318 325 314 302 301 325 330 314 309 329 320 318 315 315 314 311 306 300 300 298 298 296 298 289 290 286
103 99 96 86 80 84 79 48 60 108 79 23 325 321 299 309 318 322 323 317 316 328 319 313 306 313 320 321 322 319 312 312 305 300 298 294 294 295 296 295 294 291 288
96 91 90 85 80 72 51 47 23 340 301 281 283 303 321 315 325 326 315 315 335 332 345 315 304 314 315 314 311 307 306 303 303 296 294 292 290 290 303 296 295 293 292
86 95 86 75 67 60 58 31 14 3 329 321 335 329 330 339 334 327 328 350 333 333 316 316 302 311 312 308 305 303 302 302 301 296 290 293 295 292 295 294 295 296 293
80 72 76 77 66 54 36 10 346 343 342 322 327 342 348 335 335 338 343 340 325 322 321 317 301 311 308 304 302 300 298 299 300 303 297 296 296 294 293 293 293 301 304
73 78 77 63 50 32 12 354 354 356 335 325 329 312 308 326 340 333 326 327 320 318 321 310 310 304 300 300 299 297 298 298 301 300 297 295 295 293 293 296 297 297 296
96 70 66 50 41 20 336 349 349 331 315 315 305 313 331 352 331 322 327 324 325 321 303 307 306 297 296 295 295 295 295 296 296 295 294 294 295 297 297 294 293 294 296
84 78 55 48 357 3 332 307 305 311 314 321 320 325 336 356 324 320 320 322 324 315 302 302 296 293 291 291 294 294 294 295 295 293 290 293 295 296 295 293 295 295 309
82 78 34 352 5 336 342 327 328 327 323 315 315 327 336 332 324 319 322 322 314 305 296 296 294 294 293 290 288 284 284 285 288 289 290 294 293 289 289 301 323 318 319
76 63 356 330 323 329 321 320 315 324 326 327 329 327 322 315 313 314 313 295 296 289 294 294 292 291 295 295 293 287 282 283 283 279 281 292 311 316 322 324 318 316 317
61 18 353 345 330 320 324 322 325 328 330 327 328 319 314 311 304 292 290 290 294 297 301 304 296 292 293 296 295 296 295 303 309 310 303 296 303 310 318 315 322 322 326
33 1 333 331 334 327 322 323 317 320 327 314 294 294 291 295 291 293 300 297 300 304 306 302 301 299 299 297 295 302 310 315 318 328 331 314 313 316 316 323 333 338 340